Flag for China Weather past 2 weeks in Hohhot, Inner Mongolia, China

Now
61 °F

Passing clouds.


Feels Like: 61 °F
Forecast: 39 / 65 °F
Wind: 6 mph from Southwest

Location: Hohhot Airport

Current Time: May 7, 2015 at 11:45:05 AM

Latest Report: May 7, 2015 at 11:00 AM


Visibility: N/A

Pressure: 29.92 "Hg

Humidity: 20%

Dew point: 19 °F

Location of HohhotLocation

Historic Weather in Hohhot — Graph

°F

Hohhot temperature yesterday

Maximum temperature yesterday: 61 °F (at 3:00 PM)
Minimum temperature yesterday: 36 °F (at 5:00 AM)
Average temperature yesterday: 50 °F

Past Weeks' High & Low Weather Summary

 TemperatureHumidityPressure
High86 °F (Apr 30, 3:00 PM)94% (May 1, 3:00 AM)30.30 "Hg (May 1, 3:00 AM)
Low32 °F (May 4, 4:00 AM)5% (Apr 24, 11:00 AM)29.68 "Hg (Apr 30, 5:00 PM)
Average58 °F29%29.97 "Hg
* Reported Apr 22 10:00 AM — May 7 10:00 AM, Hohhot, Weather by CustomWeather, © 2015

Note: Actual official high and low records may vary slightly from our data, if they occured in-between our weather recording intervals... More about our weather records

Advertising

Hohhot weather history for previous 24 hours

 ConditionsComfort  
Time TempWeatherWind HumidityBarometerVisibility
10:00 AM
Thu, May 7
57 °FPassing clouds.3 mph20%29.92 "HgN/A
9:00 AM55 °FPassing clouds.3 mph19%29.95 "HgN/A
8:00 AM52 °FPassing clouds.6 mph28%29.95 "HgN/A
7:00 AM46 °FSunny.1 mph37%29.95 "Hg10 mi
6:00 AM41 °FPassing clouds.1 mph49%29.95 "HgN/A
5:00 AM45 °FPassing clouds.1 mph37%29.95 "HgN/A
4:00 AM39 °FPassing clouds.1 mph56%29.92 "HgN/A
3:00 AM45 °FPassing clouds.1 mph39%29.89 "HgN/A
2:00 AM48 °FPassing clouds.6 mph32%29.89 "HgN/A
1:00 AM50 °FPassing clouds.6 mph35%29.89 "HgN/A
12:00 AM50 °FPassing clouds.1 mph43%29.89 "HgN/A
11:00 PM
Wed, May 6
50 °FPassing clouds.1 mph40%29.86 "HgN/A
10:00 PM52 °FPassing clouds.1 mph38%29.86 "HgN/A
9:00 PM54 °FPassing clouds.3 mph41%29.80 "HgN/A
8:00 PM55 °FPassing clouds.1 mph38%29.77 "HgN/A
7:00 PM59 °FPassing clouds.3 mph34%29.74 "HgN/A
6:00 PM61 °FPassing clouds.1 mph29%29.71 "HgN/A
5:00 PM59 °FScattered clouds.6 mph29%29.71 "HgN/A
4:00 PM61 °FScattered clouds.8 mph17%29.74 "HgN/A
3:00 PM61 °FScattered clouds.3 mph13%29.74 "HgN/A
2:00 PM57 °FScattered clouds.3 mph17%29.77 "HgN/A
1:00 PM57 °FScattered clouds.6 mph17%29.77 "HgN/A
12:00 PM55 °FPassing clouds.1 mph14%29.77 "HgN/A
11:00 AM52 °FPassing clouds.3 mph17%29.80 "HgN/A
Weather by CustomWeather, © 2015

See weather overviewHow to use our weather pages